Home   Weather   Aberdeen   Past weeks

Flag for United Kingdom Past Weather in Aberdeen, Scotland, United Kingdom — Yesterday and Last 2 Weeks

Now
59 °F

Passing clouds.


Feels Like: 56 °F
Forecast: 50 / 58 °F
Wind: 14 mph from South

Location: Aberdeen / Dyce

Current Time: Sep 25, 2016 at 1:30:15 AM

Latest Report: Sep 25, 2016 at 12:50 AM


Visibility: N/A

Pressure: 29.56 "Hg

Humidity: 82%

Dew Point: 54 °F

Location of AberdeenLocation

Past Weather in Aberdeen — Graph

°F

Aberdeen Temperature Yesterday

Maximum temperature yesterday: 61 °F (at 5:50 PM)
Minimum temperature yesterday: 55 °F (at 4:20 AM)
Average temperature yesterday: 58 °F

High & Low Weather Summary for the Past Weeks

 TemperatureHumidityPressure
High70 °F (Sep 13, 11:20 AM)100% (Sep 14, 2:50 AM)30.21 "Hg (Sep 14, 2:50 AM)
Low43 °F (Sep 17, 6:50 AM)55% (Sep 20, 12:20 PM)29.53 "Hg (Sep 10, 12:20 AM)
Average56 °F84%29.93 "Hg
* Reported Sep 10 12:20 AM — Sep 25 12:20 AM, Aberdeen, Weather by CustomWeather, © 2016

Note: Actual official high and low records may vary slightly from our data, if they occured in-between our weather recording intervals... More about our weather records

Advertising

Aberdeen Weather History for the Previous 24 Hours

Scroll right to see more
 ConditionsComfort  
Time TempWeatherWind HumidityBarometerVisibility
12:20 AM
Sun, Sep 25
59 °FPassing clouds.15 mph82%29.56 "HgN/A
11:50 PM
Sat, Sep 24
57 °FClear.12 mph88%29.59 "Hg10 mi
11:20 PM59 °FClear.10 mph82%29.59 "Hg10 mi
10:50 PM59 °FClear.14 mph82%29.59 "Hg10 mi
10:20 PM59 °FPassing clouds.15 mph82%29.59 "HgN/A
9:50 PM59 °FLight rain. Passing clouds.15 mph88%29.59 "HgN/A
9:20 PM59 °FPassing clouds.16 mph82%29.62 "HgN/A
8:50 PM59 °FLight rain. Passing clouds.16 mph88%29.62 "HgN/A
8:20 PM59 °FLight rain. Passing clouds.15 mph88%29.62 "HgN/A
7:50 PM59 °FLight rain. Passing clouds.14 mph88%29.62 "HgN/A
7:20 PM59 °FLight rain. Passing clouds.15 mph88%29.62 "HgN/A
6:50 PM57 °FScattered clouds.16 mph94%29.62 "HgN/A
6:20 PM61 °FLight rain. Broken clouds.17 mph83%29.62 "HgN/A
5:50 PM61 °FPartly sunny.16 mph83%29.62 "HgN/A
5:20 PM59 °FPartly sunny.15 mph88%29.62 "HgN/A
4:50 PM59 °FPartly sunny.17 mph88%29.62 "HgN/A
4:20 PM59 °FLight rain. Partly sunny.16 mph88%29.65 "Hg6 mi
3:50 PM59 °FLight rain. Partly sunny.14 mph88%29.65 "HgN/A
3:20 PM59 °FSprinkles. Scattered clouds.17 mph88%29.65 "HgN/A
2:50 PM59 °FPartly sunny.17 mph88%29.65 "HgN/A
2:20 PM59 °FPartly sunny.16 mph88%29.65 "HgN/A
1:50 PM59 °FPartly sunny.21 mph88%29.65 "HgN/A
1:20 PM59 °FPartly sunny.14 mph82%29.65 "HgN/A
12:50 PM57 °FPartly sunny.18 mph88%29.65 "HgN/A
12:20 PM57 °FBroken clouds.17 mph88%29.68 "HgN/A
11:50 AM57 °FLight rain. Partly sunny.18 mph88%29.68 "HgN/A
11:20 AM57 °FSprinkles. Partly sunny.22 mph88%29.68 "HgN/A
10:50 AM59 °FPartly sunny.21 mph82%29.68 "HgN/A
10:20 AM57 °FLight rain. Broken clouds.20 mph82%29.71 "HgN/A
9:50 AM57 °FPartly sunny.23 mph82%29.71 "HgN/A
9:20 AM57 °FScattered clouds.22 mph82%29.71 "HgN/A
8:50 AM57 °FScattered clouds.18 mph82%29.71 "HgN/A
8:20 AM57 °FScattered clouds.23 mph82%29.68 "HgN/A
7:50 AM57 °FScattered clouds.24 mph82%29.68 "HgN/A
7:20 AM55 °FPassing clouds.26 mph88%29.68 "HgN/A
6:50 AM55 °FPassing clouds.22 mph82%29.71 "HgN/A
6:20 AM55 °FClear.22 mph82%29.68 "Hg10 mi
5:50 AM55 °FPassing clouds.21 mph82%29.71 "HgN/A
5:20 AM55 °FPassing clouds.17 mph82%29.74 "HgN/A
4:50 AM55 °FPassing clouds.17 mph82%29.74 "HgN/A
4:20 AM55 °FPassing clouds.20 mph88%29.74 "HgN/A
3:50 AM57 °FPassing clouds.20 mph77%29.77 "HgN/A
3:20 AM57 °FPassing clouds.17 mph77%29.77 "HgN/A
2:50 AM57 °FPassing clouds.15 mph77%29.80 "HgN/A
2:20 AM57 °FPassing clouds.14 mph77%29.80 "HgN/A
1:50 AM57 °FPassing clouds.15 mph77%29.80 "HgN/A
1:20 AM57 °FPassing clouds.13 mph77%29.80 "HgN/A
Weather by CustomWeather, © 2016

See weather overviewHow to use our weather pages